{"data":{"norad_id":64154,"epoch":"2026-09-20T21:26:52.948896Z","epoch_age_seconds":106335,"freshness":"FRESH","line1":"1 64154U 25112J   26263.89366839  .00012667  00000+0  39386-3 0  9995","line2":"2 64154  97.2837 318.6236 0000998  92.5791 267.5566 15.33458080 73303","mean_motion":15.3345808,"eccentricity":9.98e-5,"inclination_deg":97.2837,"raan_deg":318.6236,"arg_perigee_deg":92.5791,"mean_anomaly_deg":267.5566,"bstar":0.00039386,"rev_number":7330,"period_min":93.905403661246,"perigee_km":464.82126247978,"apogee_km":466.18725327486,"semimajor_km":6843.6412578773,"source":"CELESTRAK","updated_at":"2026-09-21T09:00:35.239217Z"}}